Regional Weather Roundup
Issued by NWS Glasgow, MT

Home | Current Version | Previous Version | Text Only | Print | Product List | Glossary On
Versions: 1 2 3 4 5 6 7 8 9 10 11 12 13 14 15 16 17 18 19 20 21 22 23 24 25 26 27
000
ASUS45 KGGW 230015
RWRGGW
HOURLY WEATHER ROUNDUP FOR NORTHEAST MONTANA
NATIONAL WEATHER SERVICE GLASGOW MONTANA
600 PM MDT WED OCT 22 2014

NOTE: "FAIR" INDICATES FEW OR NO CLOUDS BELOW 12,000 FEET WITH NO
SIGNIFICANT WEATHER AND/OR OBSTRUCTIONS TO VISISBILITY.

NORTHEAST MONTANA


CITY           SKY/WX    TMP DP  RH WIND       PRES   REMARKS
GLASGOW        CLEAR     55  32  41 W8        29.85R
6HR MIN TEMP:  55; 6HR MAX TEMP:  64;

PLENTYWOOD       N/A     57  34  41 W7          N/A
WOLF POINT     CLEAR     58  33  39 W7        29.85R
JORDAN           N/A     57  30  35 W6        29.88R
WINNETT          N/A     61  29  29 CALM        N/A
SIDNEY         CLEAR     57  34  41 SW8       29.87R
GLENDIVE       CLEAR     54  32  43 W8        29.91R
MALTA            N/A     59  35  40 SW6         N/A
SCOBEY           N/A     56  32  40 W7        29.82

FORT PECK REPORTS


CITY           SKY/WX    TMP DP  RH WIND       PRES   REMARKS
FORT PECK        N/A     59  33  37 SW10        N/A
THE PINES        N/A     59  32  36 SW6         N/A

SOUTHEAST MONTANA


CITY           SKY/WX    TMP DP  RH WIND       PRES   REMARKS
BILLINGS       PTCLDY    61  21  21 W12       29.94R
MILES CITY     CLEAR     55  26  32 SW8       29.91S
BAKER          CLEAR     52  30  43 W7        29.94R
LIVINGSTON     CLEAR     54  26  34 SW23G35   29.99S

CENTRAL MONTANA


CITY           SKY/WX    TMP DP  RH WIND       PRES   REMARKS
HAVRE          PTCLDY    58  37  45 SW10      29.82S
LEWISTOWN      CLEAR     54  30  40 W18       29.91F
GREAT FALLS    FAIR      56  32  40 SW18      29.86R
CUT BANK       PTCLDY    54  34  46 W18G26    29.85R
HELENA         CLEAR     60  32  34 S6        29.93S
BUTTE          CLEAR     52  29  41 W3        30.03S
BOZEMAN        CLEAR     54  29  38 W6        30.00F

WESTERN MONTANA


CITY           SKY/WX    TMP DP  RH WIND       PRES   REMARKS
MISSOULA       CLOUDY    59  39  47 CALM      29.95S
KALISPELL      NOT AVBL

NORTH DAKOTA


CITY           SKY/WX    TMP DP  RH WIND       PRES   REMARKS
WILLISTON      CLEAR     57  36  45 W9        29.82R
DICKINSON      CLEAR     50  33  52 W8        29.88R
MINOT          CLOUDY    58  42  55 SW12      29.80R
BISMARCK       CLEAR     60  38  43 W10       29.87R

SOUTHERN SASKATCHEWAN


CITY           SKY/WX    TMP DP  RH WIND       PRES   REMARKS
REGINA         MOCLDY    50  45  81 W6        29.75S
MOOSE JAW      PTCLDY    50  43  76 W8        29.76R
ESTEVAN        MOCLDY    54  46  76 W9        29.79R
SWIFT CURRENT  CLEAR     50  37  62 W9        29.78R




USA.gov is the U.S. government's official web portal to all federal, state and local government web resources and services.